星链-32697 (STARLINK-32697)

导读 | 豆包AI

STARLINK-32697是美国SpaceX公司星链星座的第二代卫星,于2024年12月29日发射入轨。作为全球低轨宽带互联网星座的组成部分,它运行在近地轨道,配备增强型相控阵天线与激光星间链路,可为全球偏远地区提供高速低延迟宽带服务,助力星链实现全球互联网覆盖,推动星座规模扩展与服务能力升级,满足各类用户的网络接入需求。

基本信息
目录编号:
62436
目录名称:
STARLINK-32697
国际标识:
2024-251E
轨道中心:
EARTH
卫星名称:
星链-32697
卫星全名:
星链-32697 (STARLINK-32697)
卫星状态:
在轨 (已飞行441 天)
发射日期:
2024-12-29 UTC
国别 :
美国 (US)
星等 :
--
轨道信息
数据来源 国际轨道数据
星历时间: 2026-03-14T16:33:47+0800
18小时前
查看轨道信息
半长轴: 6853.302km
偏心率: 0.0001022
轨道倾角: 53.157°
近地点辐角 92.404°
升交点赤经 313.580°
平近点角 267.708°
近地点: 474.464km
远地点: 475.866km
周期: 94.104分钟
每日圈数: 15.302168
详细信息
固有亮度:
5
最大亮度:
2.5
卫星平台:
Starlink V1.0
覆盖范围:
全球
运营商:
太空探索技术公司
运营商所在国:
美国
制造商(研发单位):
太空探索技术公司
制造商所在国:
美国
使用方式:
暂无
卫星简介
Starlink 计划是 SpaceX 推出的全球卫星互联网项目,通过发射低轨道卫星,为全球尤其是偏远地区提供高速、低延迟的互联网服务。自 2019 年起,Starlink 已部署数千颗卫星,旨在缩小全球数字鸿沟,推动互联网普及。该项目还为军事、航空等行业提供通信支持,带来广泛经济效益。
2D轨道图
3D轨道图
轨道高度分析图
轨道倾角分析图
轨道综合分析图
查看轨道综合分析图